Weather History for Montauk, NY

Change the Weather History Date:

Friday, February 17, 2012

  Actual Average (KHTO) Record (KHTO)
Temperature  
Mean Temperature 44 °F -  
Max Temperature 48 °F 38 °F 63 °F (1976)
Min Temperature 41 °F 23 °F 1 °F (1979)
Degree Days  
Heating Degree Days 20    
Moisture  
Dew Point 38 °F    
Average Humidity 79    
Maximum Humidity 97    
Minimum Humidity 51    
Precipitation  
Precipitation 0.01 in - - ()
Sea Level Pressure  
Sea Level Pressure 29.96 in    
Wind  
Wind Speed 5 mph (West)    
Max Wind Speed 14 mph    
Max Gust Speed 20 mph    
Averages and records for this station are not official NWS values.
T = Trace of Precipitation, MM = Missing Value Source: NWS Daily Summary

Daily Weather History Graph

Daily Weather History Graph

Search for Another Location

Airport:

Trip Planner

Search our weather history database for the weather conditions in past years. The results will help you decide how hot, cold, wet, or windy it might be!

Date:

Astronomy

Feb. 17, 2012 Rise Set
Actual Time 6:40 AM EST 5:23 PM EST
Civil Twilight 6:12 AM EST 5:51 PM EST
Nautical Twilight 5:39 AM EST 6:24 PM EST
Astronomical Twilight 5:08 AM EST 6:56 PM EST
Moon 3:30 AM EST (2/17) 1:12 PM EST (2/17)
Length of Visible Light 11h 39m
Length of Day
10h 43m
Waning Crescent, 19% of the Moon is Illuminated
Feb 17
Waning Crescent
Feb 21
New
Feb 29
First Quarter
Mar 8
Full
Mar 14
Last Quarter

Hourly Weather History & Observations

Time (EST) Temp. Windchill Dew Point Humidity Pressure Visibility Wind Dir Wind Speed Gust Speed Precip Events Conditions
12:54 AM 44.1 °F 41.5 °F 41.0 °F 89% 30.06 in - Variable 4.6 mph - N/A   Unknown
1:54 AM 44.1 °F 42.5 °F 41.0 °F 89% 30.04 in - South 3.5 mph - N/A   Unknown
2:54 AM 44.1 °F 42.5 °F 42.1 °F 93% 30.02 in - South 3.5 mph - N/A   Unknown
4:54 AM 44.1 °F - 42.1 °F 93% 29.99 in - Calm Calm - N/A   Unknown
5:54 AM 44.1 °F - 43.0 °F 96% 29.98 in - Calm Calm - N/A   Unknown
6:54 AM 45.0 °F - 44.1 °F 97% 29.99 in - Calm Calm - N/A   Unknown
7:54 AM 44.1 °F - 43.0 °F 96% 30.00 in - Calm Calm - N/A   Unknown
8:54 AM 45.0 °F 43.5 °F 44.1 °F 97% 30.00 in - SW 3.5 mph - N/A   Unknown
9:54 AM 44.1 °F 41.5 °F 42.1 °F 93% 29.99 in - West 4.6 mph - N/A   Unknown
10:54 AM 45.0 °F 41.2 °F 44.1 °F 97% 29.97 in - West 6.9 mph - 0.01 in   Unknown
11:54 AM 46.0 °F 42.5 °F 44.1 °F 93% 29.94 in - West 6.9 mph - N/A   Unknown
12:54 PM 48.9 °F - 42.1 °F 77% 29.91 in - West 8.1 mph - N/A   Unknown
1:54 PM 48.9 °F - 39.9 °F 71% 29.89 in - West 6.9 mph - N/A   Unknown
2:54 PM 48.0 °F - 39.0 °F 71% 29.89 in - West 8.1 mph - N/A   Unknown
3:54 PM 48.0 °F - 37.9 °F 68% 29.88 in - West 6.9 mph - N/A   Unknown
4:54 PM 46.0 °F 41.9 °F 35.1 °F 66% 29.90 in - West 8.1 mph - N/A   Unknown
6:54 PM 46.0 °F 39.9 °F 30.0 °F 54% 29.94 in - NW 13.8 mph 19.6 mph N/A   Unknown
7:54 PM 44.1 °F 38.1 °F 27.0 °F 51% 29.96 in - NNW 11.5 mph - N/A   Unknown
8:54 PM 43.0 °F 39.5 °F 28.9 °F 58% 29.97 in - WNW 5.8 mph - N/A   Unknown
9:54 PM 43.0 °F 39.5 °F 28.0 °F 56% 29.98 in - West 5.8 mph - N/A   Unknown
10:54 PM 41.0 °F 38.0 °F 30.0 °F 65% 29.96 in - West 4.6 mph - N/A   Unknown
11:54 PM 41.0 °F 35.8 °F 30.0 °F 65% 29.96 in - West 8.1 mph - N/A   Unknown